This demonstration page uses our WeatherBlox Daily Observations layout. Learn more.

Left ArrowRight Arrow

Hourly Observations for October 12, 2020

Temp ( °F °C ) Dew Point ( °F °C ) Humidity (%) Winds ( mph kmh ) Pressure ( in mb ) Visibility ( mi km ) Precip ( " mm )
12:15 am 00:15 Cloudy 53 11.6 40 4.6 62 62 NNW 14 22 29.90 1012 10 16 N/A
12:35 am 00:35 Mostly Cloudy 53 11.6 40 4.2 61 61 NNW 13 20 29.90 1012 10 16 N/A
12:55 am 00:55 Partly Cloudy 52 11.3 40 4.2 62 62 NNW 10 17 29.89 1012 10 16 N/A
1:15 am 01:15 Clear 51 10.4 39 4.1 65 65 NW 9 15 29.92 1013 10 16 N/A
1:35 am 01:35 Clear 49 9.2 39 4 70 70 NW 9 15 29.94 1014 10 16 N/A
1:55 am 01:55 Clear 48 8.9 39 3.8 71 71 WNW 10 17 29.95 1014 10 16 N/A
2:15 am 02:15 Clear 47 8.5 38 3.5 71 71 WNW 8 13 29.96 1014 10 16 N/A
2:35 am 02:35 Clear 47 8.1 38 3.3 72 72 WNW 9 15 29.97 1015 10 16 N/A
2:55 am 02:55 Clear 46 7.6 38 3.1 73 73 WNW 10 17 29.98 1015 10 16 N/A
3:15 am 03:15 Clear 46 7.5 37 3 73 73 WNW 9 15 30.00 1016 10 16 N/A
3:35 am 03:35 Clear 46 7.5 37 2.6 71 71 WNW 12 19 30.00 1016 10 16 N/A
3:55 am 03:55 Clear 46 7.6 36 2.2 69 69 NW 12 19 30.00 1016 10 16 N/A
4:15 am 04:15 Clear 46 7.6 36 2 68 68 NW 9 15 30.00 1016 10 16 N/A
4:35 am 04:35 Clear 45 7 35 1.6 69 69 NW 8 13 30.01 1016 10 16 N/A
4:55 am 04:55 Clear 45 7.1 35 1.5 68 68 NW 9 15 30.01 1016 10 16 N/A
5:15 am 05:15 Clear 44 6.6 34 1.2 69 69 NW 6 9 30.01 1016 10 16 N/A
5:35 am 05:35 Clear 42 5.5 34 1 73 73 WNW 7 11 30.04 1017 10 16 N/A
5:55 am 05:55 Clear 42 5.6 34 0.9 72 72 WNW 8 13 30.04 1017 10 16 N/A
6:15 am 06:15 Clear 42 5.7 33 0.7 71 71 WNW 6 9 30.05 1018 10 16 N/A
6:35 am 06:35 Clear 42 5.7 34 0.9 72 72 WNW 7 11 30.06 1018 10 16 N/A
6:55 am 06:55 Clear 41 5.1 33 0.5 72 72 W 8 13 30.08 1019 10 16 N/A
7:15 am 07:15 Clear 40 4.4 32 0.1 74 74 W 5 7 30.09 1019 10 16 N/A
7:35 am 07:35 Clear 38 3.6 32 undefined 78 78 W 5 7 30.10 1019 10 16 N/A
7:55 am 07:55 Sunny 37 3 32 undefined 81 81 SW 6 9 30.11 1020 10 16 N/A
8:15 am 08:15 Sunny 38 3.6 32 undefined 78 78 WSW 3 6 30.11 1020 10 16 N/A
8:35 am 08:35 Sunny 41 4.8 33 0.6 75 75 WSW 5 7 30.11 1020 10 16 N/A
8:55 am 08:55 Sunny 42 5.8 34 1.2 73 73 W 8 13 30.11 1020 10 16 N/A
9:15 am 09:15 Sunny 44 6.8 34 1.3 68 68 WSW 6 9 30.10 1019 10 16 N/A
9:35 am 09:35 Sunny 46 7.9 34 1.2 63 63 WSW 6 9 30.09 1019 10 16 N/A
9:55 am 09:55 Sunny 48 9 35 1.4 59 59 W 9 15 30.08 1019 10 16 N/A
10:15 am 10:15 Sunny 50 10.2 35 1.5 55 55 W 9 15 30.08 1019 10 16 N/A
10:35 am 10:35 Sunny 53 11.6 34 1.3 50 50 W 8 13 30.06 1018 10 16 N/A
10:55 am 10:55 Sunny 56 13.4 34 1.1 43 43 W 7 11 30.04 1017 10 16 N/A
11:15 am 11:15 Sunny 59 15 32 0.2 37 37 W 12 19 30.02 1017 10 16 N/A
11:35 am 11:35 Sunny 61 16.2 32 0.1 34 34 SW 8 13 30.00 1016 10 16 N/A
11:55 am 11:55 Sunny 62 16.9 31 -0.6 31 31 WSW 10 17 29.99 1016 10 16 N/A
12:15 pm 12:15 Sunny 64 17.6 29 -1.4 28 28 WSW 10 17 29.98 1015 10 16 N/A
12:55 pm 12:55 Sunny 66 19.1 27 -2.7 23 23 WSW 9 15 29.94 1014 10 16 N/A
1:15 pm 13:15 Sunny 68 19.8 29 -1.5 24 24 SW 13 20 29.93 1014 10 16 N/A
1:35 pm 13:35 Sunny 69 20.5 27 -2.7 21 21 WSW 12 19 29.91 1013 10 16 N/A
1:55 pm 13:55 Sunny 70 21.3 26 -3.1 19 19 SW 13 20 29.90 1012 10 16 N/A
2:15 pm 14:15 Sunny 71 21.7 25 -3.9 18 18 SW 13 20 29.87 1012 10 16 N/A
2:35 pm 14:35 Sunny 71 21.8 25 -3.8 18 18 SW 14 22 29.86 1011 10 16 N/A
2:55 pm 14:55 Sunny 73 22.7 25 -3.8 17 17 WSW 13 20 29.84 1010 10 16 N/A
3:15 pm 15:15 Sunny 73 23 26 -3.5 17 17 WSW 16 26 29.82 1010 10 16 N/A
3:35 pm 15:35 Sunny 74 23.1 26 -3.5 17 17 W 14 22 29.81 1010 10 16 N/A
3:55 pm 15:55 Sunny 74 23.5 26 -3.4 16 16 WSW 16 26 29.81 1009 10 16 N/A
4:15 pm 16:15 Sunny 74 23.5 26 -3.5 16 16 WSW 13 20 29.80 1009 10 16 N/A
4:35 pm 16:35 Sunny 74 23.5 26 -3.5 16 16 WSW 10 17 29.79 1009 10 16 N/A
4:55 pm 16:55 Sunny 74 23.5 26 -3.6 16 16 WSW 13 20 29.79 1009 10 16 N/A
5:15 pm 17:15 Sunny 74 23.6 26 -3.6 16 16 SW 16 26 29.78 1008 10 16 N/A
5:35 pm 17:35 Sunny 74 23.5 25 -3.7 16 16 SW 14 22 29.77 1008 10 16 N/A
5:55 pm 17:55 Sunny 74 23.1 25 -3.9 16 16 SW 15 24 29.76 1008 10 16 N/A
6:15 pm 18:15 Sunny 73 22.5 25 -3.8 17 17 SSW 12 19 29.76 1008 10 16 N/A
6:35 pm 18:35 Sunny 71 21.7 25 -4 18 18 SSW 12 19 29.76 1008 10 16 N/A
6:55 pm 18:55 Sunny 69 20.7 24 -4.3 18 18 S 8 13 29.76 1008 10 16 N/A
7:15 pm 19:15 Clear 65 18.6 26 -3.2 23 23 S 7 11 29.78 1008 10 16 N/A
7:35 pm 19:35 Clear 63 17.1 27 -3 25 25 S 8 13 29.80 1009 10 16 N/A
7:55 pm 19:55 Clear 62 16.6 27 -3 26 26 S 9 15 29.81 1009 10 16 N/A
8:15 pm 20:15 Clear 61 16.2 27 -2.9 27 27 S 9 15 29.81 1009 10 16 N/A
8:35 pm 20:35 Clear 61 16 27 -2.6 28 28 S 9 15 29.82 1010 10 16 N/A
8:55 pm 20:55 Clear 60 15.7 28 -2.2 29 29 S 9 15 29.82 1010 10 16 N/A
9:15 pm 21:15 Clear 59 14.8 28 -2 32 32 S 10 17 29.83 1010 10 16 N/A
9:35 pm 21:35 Clear 59 14.9 28 -2.4 30 30 SSW 8 13 29.84 1011 10 16 N/A
9:55 pm 21:55 Clear 56 13.5 27 -2.7 33 33 SSW 7 11 29.86 1011 10 16 N/A
10:15 pm 22:15 Clear 58 14.2 27 -2.8 31 31 SW 10 17 29.87 1011 10 16 N/A
10:35 pm 22:35 Clear 60 15.3 27 -2.7 29 29 SW 10 17 29.86 1011 10 16 N/A
10:55 pm 22:55 Clear 61 15.9 27 -2.7 28 28 SSW 12 19 29.85 1011 10 16 N/A
11:15 pm 23:15 Clear 60 15.4 28 -2.5 29 29 SW 10 17 29.86 1011 10 16 N/A
11:35 pm 23:35 Clear 59 15.1 28 -2.5 30 30 SW 10 17 29.86 1011 10 16 N/A
11:55 pm 23:55 Clear 59 14.8 27 -2.6 30 30 SW 12 19 29.87 1012 10 16 N/A

Powered by AerisWeather